Ashland, WI

3:11 AM CDT on April 21, 2018 (GMT -0500)
Kennedy Memorial

Weather History for KASX - September, 2013

Change the Weather History Date:

Sunday, September 1, 2013

  Actual Average Record
Temperature  
Mean Temperature 67 °F 62 °F  
Max Temperature 78 °F 74 °F 96 °F (1913)
Min Temperature 57 °F 49 °F 29 °F (1935)
Degree Days  
Heating Degree Days 0 4  
Month to date heating degree days 4  
Cooling Degree Days 2 1  
Month to date cooling degree days 1  
Growing Degree Days 17 (Base 50)    
Moisture  
Dew Point 60 °F    
Average Humidity 80    
Maximum Humidity 97    
Minimum Humidity 62    
Precipitation  
Precipitation 0.01 in 0.10 in 1.40 in (1937)
Month to date precipitation 0.10  
Sea Level Pressure  
Sea Level Pressure 29.80 in    
Wind  
Wind Speed 7 mph (WNW)    
Max Wind Speed 14 mph    
Max Gust Speed 22 mph    
Visibility 10 miles    
Events      
T = Trace of Precipitation, MM = Missing Value Source: NWS Daily Summary

Daily Weather History Graph

Daily Weather History Graph

Search for Another Location

Airport or City:

Astronomy

Sep. 01, 2013 Rise Set
Actual Time 6:24 AM CDT 7:42 PM CDT
Civil Twilight 5:52 AM CDT 8:13 PM CDT
Nautical Twilight 5:15 AM CDT 8:50 PM CDT
Astronomical Twilight 4:34 AM CDT 9:30 PM CDT
Moon 2:37 AM CDT (9/1) 5:26 PM CDT (9/1)
Length of Visible Light 14h 20m
Length of Day
13h 18m
Waning Crescent, 13% of the Moon is Illuminated
Sep 1
Waning Crescent
Sep 5
New
Sep 12
First Quarter
Sep 19
Full
Sep 26
Last Quarter

Hourly Weather History & Observations

Time (CDT) Temp. Dew Point Humidity Pressure Visibility Wind Dir Wind Speed Gust Speed Precip Events Conditions
12:53 AM 64.9 °F 64.0 °F 97% 29.71 in 10.0 mi SSW 3.5 mph - N/A   Mostly Cloudy
1:53 AM 64.9 °F 62.1 °F 90% 29.71 in 10.0 mi South 3.5 mph - N/A   Clear
2:53 AM 63.0 °F 61.0 °F 93% 29.69 in 10.0 mi Calm Calm - 0.01 in   Partly Cloudy
3:53 AM 64.0 °F 62.1 °F 93% 29.68 in 10.0 mi WSW 5.8 mph - N/A   Overcast
4:53 AM 64.9 °F 62.1 °F 90% 29.68 in 10.0 mi WSW 8.1 mph - N/A   Mostly Cloudy
5:32 AM 64.4 °F 62.6 °F 94% 29.69 in 10.0 mi West 9.2 mph - N/A   Mostly Cloudy
5:53 AM 64.9 °F 63.0 °F 93% 29.69 in 10.0 mi WSW 10.4 mph - N/A   Overcast
6:33 AM 66.2 °F 62.6 °F 88% 29.71 in 10.0 mi WSW 9.2 mph - N/A   Overcast
6:43 AM 64.4 °F 62.6 °F 94% 29.71 in 10.0 mi West 8.1 mph - N/A   Overcast
6:53 AM 66.0 °F 62.1 °F 87% 29.71 in 10.0 mi West 8.1 mph - N/A   Overcast
7:25 AM 64.4 °F 62.6 °F 94% 29.72 in 10.0 mi West 8.1 mph - N/A   Overcast
7:53 AM 66.0 °F 62.1 °F 87% 29.73 in 10.0 mi West 11.5 mph 20.7 mph N/A   Mostly Cloudy
8:17 AM 66.2 °F 60.8 °F 83% 29.74 in 10.0 mi WNW 10.4 mph - N/A   Partly Cloudy
8:53 AM 68.0 °F 59.0 °F 73% 29.74 in 10.0 mi West 12.7 mph 19.6 mph N/A   Clear
9:53 AM 71.1 °F 60.1 °F 68% 29.76 in 10.0 mi Variable 6.9 mph - N/A   Scattered Clouds
10:00 AM 69.8 °F 60.8 °F 73% 29.77 in 10.0 mi WNW 8.1 mph - N/A   Mostly Cloudy
10:53 AM 70.0 °F 60.1 °F 71% 29.78 in 10.0 mi WNW 9.2 mph - N/A   Overcast
11:06 AM 69.8 °F 60.8 °F 73% 29.78 in 10.0 mi NW 6.9 mph - N/A   Overcast
11:53 AM 72.0 °F 61.0 °F 68% 29.79 in 10.0 mi NW 6.9 mph - N/A   Overcast
12:53 PM 73.0 °F 60.1 °F 64% 29.80 in 10.0 mi WNW 9.2 mph - N/A   Mostly Cloudy
1:53 PM 75.0 °F 61.0 °F 62% 29.80 in 10.0 mi NNW 9.2 mph - N/A   Scattered Clouds
2:53 PM 73.9 °F 60.1 °F 62% 29.80 in 10.0 mi NW 8.1 mph - N/A   Overcast
3:53 PM 71.1 °F 61.0 °F 70% 29.81 in 10.0 mi WNW 9.2 mph 17.3 mph N/A   Overcast
4:50 PM 69.8 °F 60.8 °F 73% 29.84 in 10.0 mi NW 8.1 mph 17.3 mph N/A   Overcast
4:53 PM 69.1 °F 61.0 °F 75% 29.83 in 10.0 mi NW 12.7 mph 20.7 mph N/A   Overcast
5:12 PM 68.0 °F 59.0 °F 73% 29.84 in 10.0 mi NW 13.8 mph 21.9 mph N/A   Overcast
5:53 PM 66.9 °F 57.9 °F 73% 29.87 in 10.0 mi WNW 11.5 mph 20.7 mph N/A   Overcast
6:53 PM 64.0 °F 55.9 °F 75% 29.89 in 10.0 mi NNW 9.2 mph - N/A   Overcast
7:28 PM 62.6 °F 55.4 °F 77% 29.91 in 10.0 mi NNW 10.4 mph - N/A   Overcast
7:53 PM 63.0 °F 55.0 °F 75% 29.91 in 10.0 mi NW 8.1 mph - N/A   Overcast
8:53 PM 62.1 °F 54.0 °F 75% 29.94 in 10.0 mi NNW 5.8 mph - N/A   Overcast
9:33 PM 60.8 °F 53.6 °F 77% 29.94 in 10.0 mi North 8.1 mph - N/A   Overcast
9:53 PM 60.1 °F 54.0 °F 80% 29.95 in 10.0 mi NNW 8.1 mph - N/A   Overcast
10:53 PM 59.0 °F 53.1 °F 81% 29.96 in 10.0 mi NNW 11.5 mph - N/A   Overcast
11:53 PM 57.9 °F 53.1 °F 84% 29.97 in 10.0 mi NNW 4.6 mph - N/A   Overcast